This is the latest recevied weather packets stored in our database for station/object N9BSW. If no packets are shown the sender has not sent any weather packets the latest 10 day(s).
| Time | Temp. | Humidity | Pressure | Rain* | Wind** | Luminosity | Snow |
|---|---|---|---|---|---|---|---|
| 1777827064 | 16.67° C | 36% | 1017.5 hPa | 0 mm | - | 750 W/m² | - |
| 1777826761 | 17.22° C | 34% | 1017.4 hPa | 0 mm | - | 573 W/m² | - |
| 1777826458 | 17.22° C | 36% | 1017.4 hPa | 0 mm | - | 763 W/m² | - |
| 1777826155 | 16.11° C | 36% | 1017.3 hPa | 0 mm | - | 827 W/m² | - |
| 1777825852 | 16.11° C | 36% | 1017.6 hPa | 0 mm | - | 759 W/m² | - |
| 1777825549 | 16.67° C | 37% | 1017.8 hPa | 0 mm | - | 446 W/m² | - |
| 1777825247 | 16.67° C | 35% | 1018 hPa | 0 mm | - | 503 W/m² | - |
| 1777824943 | 16.67° C | 37% | 1018.1 hPa | 0 mm | - | 699 W/m² | - |
| 1777824640 | 16.67° C | 37% | 1018.1 hPa | 0 mm | - | 801 W/m² | - |
| 1777824338 | 16.11° C | 38% | 1018.3 hPa | 0 mm | - | 826 W/m² | - |
| 1777824033 | 15.56° C | 38% | 1018.3 hPa | 0 mm | - | 755 W/m² | - |
| 1777823729 | 16.11° C | 35% | 1018.5 hPa | 0 mm | - | 784 W/m² | - |
| 1777823426 | 16.11° C | 38% | 1018.6 hPa | 0 mm | - | 747 W/m² | - |
| 1777823124 | 15.56° C | 41% | 1018.5 hPa | 0 mm | - | 727 W/m² | - |
| 1777822821 | 15° C | 41% | 1018.5 hPa | 0 mm | - | 714 W/m² | - |
| 1777822519 | 15.56° C | 40% | 1018.7 hPa | 0 mm | - | 704 W/m² | - |
| 1777822217 | 15° C | 39% | 1018.8 hPa | 0 mm | - | 696 W/m² | - |
| 1777821914 | 15° C | 39% | 1018.8 hPa | 0 mm | - | 725 W/m² | - |
| 1777821612 | 15° C | 40% | 1018.8 hPa | 0 mm | - | 635 W/m² | - |
| 1777821310 | 15° C | 40% | 1018.8 hPa | 0 mm | - | 665 W/m² | - |
| 1777821006 | 15° C | 41% | 1018.8 hPa | 0 mm | - | 644 W/m² | - |
| 1777820703 | 15° C | 41% | 1018.9 hPa | 0 mm | - | 629 W/m² | - |
| 1777820398 | 15° C | 40% | 1018.8 hPa | 0 mm | - | 618 W/m² | - |
| 1777820096 | 15° C | 41% | 1019 hPa | 0 mm | - | 604 W/m² | - |
| 1777819793 | 14.44° C | 43% | 1018.8 hPa | 0 mm | - | 589 W/m² | - |
* Rain latest hour (hover to see other rain measurements)
** Current wind speed in m/s (hover to see current wind gust speed)